View from above orbital plane
|
View from above satellite
|
Ground track
|
The orbit data is extracted from the following two-line orbital elements,
1 22618U 93016AC 22181.57882846 .00000132 00000-0 14837-3 0 9992
2 22618 70.9935 304.9944 0158932 225.8665 132.9280 13.82242687474350
Epoch (UTC): | 30 June 2022 13:53:30 |
Eccentricity: | 0.0158932 |
inclination: | 70.9935° |
perigee height: | 839 km |
apogee height: | 1072 km |
right ascension of ascending node: | 304.9944° |
argument of perigee: | 225.8665° |
revolutions per day: | 13.82242687 |
mean anomaly at epoch: | 132.9280° |
orbit number at epoch: | 47435 |
The dashed part of the orbit path shows where the satellite is in the earth's shadow,
|
|